Tracking 22779 objects as of 14-Apr-2021
HD Live streaming from Space Station
objects crossing your sky now

USA 17

Track USA 17 now!
10-day predictions
USA 17 is classified as:


NORAD ID: 16625
Int'l Code: 1986-014F
Perigee: 395.6 km
Apogee: 1,782.5 km
Inclination: 63.3 °
Period: 106.9 minutes
Semi major axis: 7460 km
RCS: Unknown
Launch date: February 9, 1986
Source: United States (US)
Launch site: AIR FORCE WESTERN TEST RANGE (AFWTR)
aabbcc
Your satellite tracking list
Your tracking list is empty




NASA's NSSDC Master Catalog

Two Line Element Set (TLE):
1 16625U 86014F   21103.32641155  .00000674  00000-0  73594-4 0  9992
2 16625  63.2973 128.2745 0929561  81.0004 289.4928 13.47391034 85848
Source of the keplerian elements: AFSPC